Year,Month,Day,Hour,Minute,Value (Times are PST for temperature in C)
2014,08,09,00,00,15.20
2014,08,09,00,01,15.20
2014,08,09,00,02,15.10
2014,08,09,00,03,15.10
2014,08,09,00,04,15.10
2014,08,09,00,05,15.10
2014,08,09,00,06,15.10
2014,08,09,00,07,15.10
2014,08,09,00,08,15.10
2014,08,09,00,09,15.10
2014,08,09,00,10,15.10
2014,08,09,00,11,15.10
2014,08,09,00,12,15.10
2014,08,09,00,13,15.10
2014,08,09,00,14,15.10
2014,08,09,00,15,15.10
2014,08,09,00,16,15.10
2014,08,09,00,17,15.10
2014,08,09,00,18,15.10
2014,08,09,00,19,15.10
2014,08,09,00,20,15.10
2014,08,09,00,21,15.00
2014,08,09,00,22,15.00
2014,08,09,00,23,15.00
2014,08,09,00,24,15.00
2014,08,09,00,25,15.00
2014,08,09,00,26,14.90
2014,08,09,00,27,14.90
2014,08,09,00,28,14.90
2014,08,09,00,29,14.90
2014,08,09,00,30,14.90
2014,08,09,00,31,14.90
2014,08,09,00,32,14.90
2014,08,09,00,33,14.90
2014,08,09,00,34,14.90
2014,08,09,00,35,14.90
2014,08,09,00,36,14.90
2014,08,09,00,37,14.90
2014,08,09,00,38,14.90
2014,08,09,00,39,14.90
2014,08,09,00,40,14.90
2014,08,09,00,41,14.90
2014,08,09,00,42,14.90
2014,08,09,00,43,14.90
2014,08,09,00,44,14.90
2014,08,09,00,45,14.90
2014,08,09,00,46,14.90
2014,08,09,00,47,14.90
2014,08,09,00,48,14.90
2014,08,09,00,49,14.90
2014,08,09,00,50,14.80
2014,08,09,00,51,14.80
2014,08,09,00,52,14.80
2014,08,09,00,53,14.80
2014,08,09,00,54,14.80
2014,08,09,00,55,14.80
2014,08,09,00,56,14.80
2014,08,09,00,57,14.80
2014,08,09,00,58,14.80
2014,08,09,00,59,14.80
2014,08,09,01,00,14.80
2014,08,09,01,01,14.80
2014,08,09,01,02,14.80
2014,08,09,01,03,14.80
2014,08,09,01,04,14.80
2014,08,09,01,05,14.80
2014,08,09,01,06,14.80
2014,08,09,01,07,14.70
2014,08,09,01,08,14.70
2014,08,09,01,09,14.70
2014,08,09,01,10,14.70
2014,08,09,01,11,14.70
2014,08,09,01,12,14.70
2014,08,09,01,13,14.70
2014,08,09,01,14,14.70
2014,08,09,01,15,14.70
2014,08,09,01,16,14.70
2014,08,09,01,17,14.70
2014,08,09,01,18,14.70
2014,08,09,01,19,14.70
2014,08,09,01,20,14.70
2014,08,09,01,21,14.70
2014,08,09,01,22,14.70
2014,08,09,01,23,14.60
2014,08,09,01,24,14.60
2014,08,09,01,25,14.60
2014,08,09,01,26,14.60
2014,08,09,01,27,14.60
2014,08,09,01,28,14.60
2014,08,09,01,29,14.60
2014,08,09,01,30,14.60
2014,08,09,01,31,14.60
2014,08,09,01,32,14.60
2014,08,09,01,33,14.60
2014,08,09,01,34,14.60
2014,08,09,01,35,14.60
2014,08,09,01,36,14.60
2014,08,09,01,37,14.60
2014,08,09,01,38,14.50
2014,08,09,01,39,14.50
2014,08,09,01,40,14.50
2014,08,09,01,41,14.50
2014,08,09,01,42,14.40
2014,08,09,01,43,14.40
2014,08,09,01,44,14.40
2014,08,09,01,45,14.40
2014,08,09,01,46,14.40
2014,08,09,01,47,14.40
2014,08,09,01,48,14.40
2014,08,09,01,49,14.40
2014,08,09,01,50,14.40
2014,08,09,01,51,14.40
2014,08,09,01,52,14.30
2014,08,09,01,53,14.30
2014,08,09,01,54,14.30
2014,08,09,01,55,14.30
2014,08,09,01,56,14.30
2014,08,09,01,57,14.30
2014,08,09,01,58,14.30
2014,08,09,01,59,14.30
2014,08,09,02,00,14.20
2014,08,09,02,01,14.20
2014,08,09,02,02,14.20
2014,08,09,02,03,14.20
2014,08,09,02,04,14.20
2014,08,09,02,05,14.20
2014,08,09,02,06,14.10
2014,08,09,02,07,14.10
2014,08,09,02,08,14.10
2014,08,09,02,09,14.10
2014,08,09,02,10,14.10
2014,08,09,02,11,14.10
2014,08,09,02,12,14.00
2014,08,09,02,13,14.00
2014,08,09,02,14,14.00
2014,08,09,02,15,14.00
2014,08,09,02,16,14.00
2014,08,09,02,17,14.00
2014,08,09,02,18,14.00
2014,08,09,02,19,14.00
2014,08,09,02,20,14.00
2014,08,09,02,21,14.10
2014,08,09,02,22,14.10
2014,08,09,02,23,14.10
2014,08,09,02,24,14.10
2014,08,09,02,25,14.10
2014,08,09,02,26,14.10
2014,08,09,02,27,14.10
2014,08,09,02,28,14.10
2014,08,09,02,29,14.10
2014,08,09,02,30,14.10
2014,08,09,02,31,14.00
2014,08,09,02,32,14.00
2014,08,09,02,33,14.00
2014,08,09,02,34,14.00
2014,08,09,02,35,14.00
2014,08,09,02,36,14.00
2014,08,09,02,37,14.00
2014,08,09,02,38,14.00
2014,08,09,02,39,14.00
2014,08,09,02,40,14.00
2014,08,09,02,41,14.00
2014,08,09,02,42,14.00
2014,08,09,02,43,14.00
2014,08,09,02,44,14.00
2014,08,09,02,45,14.00
2014,08,09,02,46,14.00
2014,08,09,02,47,14.00
2014,08,09,02,48,14.00
2014,08,09,02,49,14.00
2014,08,09,02,50,14.00
2014,08,09,02,51,14.00
2014,08,09,02,52,14.00
2014,08,09,02,53,14.00
2014,08,09,02,54,14.00
2014,08,09,02,55,14.00
2014,08,09,02,56,14.00
2014,08,09,02,57,14.00
2014,08,09,02,58,14.00
2014,08,09,02,59,14.00
2014,08,09,03,00,14.00
2014,08,09,03,01,14.00
2014,08,09,03,02,14.00
2014,08,09,03,06,14.00
2014,08,09,03,07,14.00
2014,08,09,03,08,14.00
2014,08,09,03,09,14.00
2014,08,09,03,10,14.00
2014,08,09,03,11,14.00
2014,08,09,03,12,14.00
2014,08,09,03,13,14.00
2014,08,09,03,14,14.00
2014,08,09,03,15,14.00
2014,08,09,03,16,14.00
2014,08,09,03,17,13.90
2014,08,09,03,18,14.00
2014,08,09,03,19,13.90
2014,08,09,03,20,13.90
2014,08,09,03,21,13.90
2014,08,09,03,22,13.90
2014,08,09,03,23,13.90
2014,08,09,03,24,13.90
2014,08,09,03,25,13.90
2014,08,09,03,26,13.90
2014,08,09,03,27,13.90
2014,08,09,03,28,13.90
2014,08,09,03,29,13.90
2014,08,09,03,30,13.90
2014,08,09,03,31,13.90
2014,08,09,03,32,13.90
2014,08,09,03,33,13.90
2014,08,09,03,34,13.90
2014,08,09,03,35,13.90
2014,08,09,03,36,13.90
2014,08,09,03,37,13.90
2014,08,09,03,38,13.90
2014,08,09,03,39,13.90
2014,08,09,03,40,13.90
2014,08,09,03,41,13.90
2014,08,09,03,42,13.90
2014,08,09,03,43,13.90
2014,08,09,03,44,13.90
2014,08,09,03,45,13.90
2014,08,09,03,46,13.90
2014,08,09,03,47,13.90
2014,08,09,03,48,13.90
2014,08,09,03,49,13.90
2014,08,09,03,50,13.90
2014,08,09,03,51,13.90
2014,08,09,03,52,13.90
2014,08,09,03,53,13.90
2014,08,09,03,54,13.90
2014,08,09,03,55,13.90
2014,08,09,03,56,13.90
2014,08,09,03,57,13.90
2014,08,09,03,58,13.90
2014,08,09,03,59,13.90
2014,08,09,04,00,13.90
2014,08,09,04,01,13.80
2014,08,09,04,02,13.80
2014,08,09,04,03,13.80
2014,08,09,04,04,13.80
2014,08,09,04,05,13.80
2014,08,09,04,06,13.80
2014,08,09,04,07,13.80
2014,08,09,04,08,13.80
2014,08,09,04,09,13.80
2014,08,09,04,10,13.80
2014,08,09,04,11,13.80
2014,08,09,04,12,13.70
2014,08,09,04,13,13.70
2014,08,09,04,14,13.70
2014,08,09,04,15,13.70
2014,08,09,04,16,13.70
2014,08,09,04,17,13.70
2014,08,09,04,18,13.70
2014,08,09,04,19,13.70
2014,08,09,04,20,13.70
2014,08,09,04,21,13.70
2014,08,09,04,22,13.60
2014,08,09,04,23,13.60
2014,08,09,04,24,13.60
2014,08,09,04,25,13.60
2014,08,09,04,26,13.60
2014,08,09,04,27,13.60
2014,08,09,04,28,13.60
2014,08,09,04,29,13.50
2014,08,09,04,30,13.50
2014,08,09,04,31,13.50
2014,08,09,04,32,13.50
2014,08,09,04,33,13.50
2014,08,09,04,34,13.50
2014,08,09,04,35,13.50
2014,08,09,04,36,13.50
2014,08,09,04,37,13.50
2014,08,09,04,38,13.40
2014,08,09,04,39,13.40
2014,08,09,04,40,13.40
2014,08,09,04,41,13.40
2014,08,09,04,42,13.40
2014,08,09,04,43,13.40
2014,08,09,04,44,13.40
2014,08,09,04,45,13.40
2014,08,09,04,46,13.40
2014,08,09,04,47,13.40
2014,08,09,04,48,13.40
2014,08,09,04,49,13.40
2014,08,09,04,50,13.40
2014,08,09,04,51,13.40
2014,08,09,04,52,13.40
2014,08,09,04,53,13.40
2014,08,09,04,54,13.40
2014,08,09,04,55,13.40
2014,08,09,04,56,13.40
2014,08,09,04,57,13.40
2014,08,09,04,58,13.40
2014,08,09,04,59,13.40
2014,08,09,05,00,13.40
2014,08,09,05,01,13.40
2014,08,09,05,02,13.40
2014,08,09,05,03,13.40
2014,08,09,05,04,13.40
2014,08,09,05,05,13.40
2014,08,09,05,06,13.40
2014,08,09,05,07,13.40
2014,08,09,05,08,13.40
2014,08,09,05,09,13.40
2014,08,09,05,10,13.40
2014,08,09,05,11,13.40
2014,08,09,05,12,13.40
2014,08,09,05,13,13.30
2014,08,09,05,14,13.30
2014,08,09,05,15,13.30
2014,08,09,05,16,13.30
2014,08,09,05,17,13.30
2014,08,09,05,18,13.30
2014,08,09,05,19,13.20
2014,08,09,05,20,13.20
2014,08,09,05,21,13.20
2014,08,09,05,22,13.20
2014,08,09,05,23,13.20
2014,08,09,05,24,13.20
2014,08,09,05,25,13.20
2014,08,09,05,26,13.20
2014,08,09,05,27,13.20
2014,08,09,05,28,13.20
2014,08,09,05,29,13.20
2014,08,09,05,30,13.20
2014,08,09,05,31,13.20
2014,08,09,05,32,13.20
2014,08,09,05,33,13.20
2014,08,09,05,34,13.20
2014,08,09,05,35,13.20
2014,08,09,05,36,13.20
2014,08,09,05,37,13.20
2014,08,09,05,38,13.20
2014,08,09,05,39,13.10
2014,08,09,05,40,13.10
2014,08,09,05,41,13.10
2014,08,09,05,42,13.10
2014,08,09,05,43,13.10
2014,08,09,05,44,13.10
2014,08,09,05,45,13.10
2014,08,09,05,46,13.10
2014,08,09,05,47,13.10
2014,08,09,05,48,13.10
2014,08,09,05,49,13.10
2014,08,09,05,50,13.10
2014,08,09,05,51,13.10
2014,08,09,05,52,13.10
2014,08,09,05,53,13.10
2014,08,09,05,54,13.10
2014,08,09,05,55,13.10
2014,08,09,05,56,13.10
2014,08,09,05,57,13.10
2014,08,09,05,58,13.10
2014,08,09,05,59,13.10
2014,08,09,06,00,13.10
2014,08,09,06,01,13.10
2014,08,09,06,02,13.10
2014,08,09,06,03,13.10
2014,08,09,06,04,13.10
2014,08,09,06,05,13.10
2014,08,09,06,06,13.10
2014,08,09,06,07,13.00
2014,08,09,06,08,13.00
2014,08,09,06,09,13.00
2014,08,09,06,10,13.00
2014,08,09,06,11,13.00
2014,08,09,06,12,13.00
2014,08,09,06,13,13.00
2014,08,09,06,14,12.90
2014,08,09,06,15,12.90
2014,08,09,06,16,12.90
2014,08,09,06,17,12.90
2014,08,09,06,18,12.90
2014,08,09,06,19,12.90
2014,08,09,06,20,12.90
2014,08,09,06,21,12.90
2014,08,09,06,22,12.90
2014,08,09,06,23,12.90
2014,08,09,06,24,12.90
2014,08,09,06,25,12.90
2014,08,09,06,26,12.90
2014,08,09,06,27,12.90
2014,08,09,06,28,12.90
2014,08,09,06,29,12.90
2014,08,09,06,30,12.90
2014,08,09,06,31,12.90
2014,08,09,06,32,12.90
2014,08,09,06,33,12.90
2014,08,09,06,34,12.90
2014,08,09,06,35,12.90
2014,08,09,06,36,13.00
2014,08,09,06,37,13.00
2014,08,09,06,38,13.00
2014,08,09,06,39,13.10
2014,08,09,06,40,13.10
2014,08,09,06,41,13.10
2014,08,09,06,42,13.10
2014,08,09,06,43,13.10
2014,08,09,06,44,13.10
2014,08,09,06,45,13.10
2014,08,09,06,46,13.10
2014,08,09,06,47,13.20
2014,08,09,06,48,13.20
2014,08,09,06,49,13.20
2014,08,09,06,50,13.20
2014,08,09,06,51,13.20
2014,08,09,06,52,13.20
2014,08,09,06,53,13.30
2014,08,09,06,54,13.30
2014,08,09,06,55,13.30
2014,08,09,06,56,13.30
2014,08,09,06,57,13.30
2014,08,09,06,58,13.40
2014,08,09,06,59,13.40
2014,08,09,07,00,13.40
2014,08,09,07,01,13.40
2014,08,09,07,02,13.40
2014,08,09,07,03,13.40
2014,08,09,07,04,13.40
2014,08,09,07,05,13.40
2014,08,09,07,06,13.40
2014,08,09,07,07,13.40
2014,08,09,07,08,13.40
2014,08,09,07,09,13.40
2014,08,09,07,10,13.40
2014,08,09,07,11,13.40
2014,08,09,07,12,13.40
2014,08,09,07,13,13.40
2014,08,09,07,14,13.50
2014,08,09,07,15,13.40
2014,08,09,07,16,13.50
2014,08,09,07,17,13.50
2014,08,09,07,18,13.50
2014,08,09,07,19,13.50
2014,08,09,07,20,13.50
2014,08,09,07,21,13.50
2014,08,09,07,22,13.60
2014,08,09,07,23,13.60
2014,08,09,07,24,13.60
2014,08,09,07,25,13.60
2014,08,09,07,26,13.60
2014,08,09,07,27,13.70
2014,08,09,07,28,13.70
2014,08,09,07,29,13.70
2014,08,09,07,30,13.70
2014,08,09,07,31,13.80
2014,08,09,07,32,13.80
2014,08,09,07,33,13.80
2014,08,09,07,34,13.80
2014,08,09,07,35,13.80
2014,08,09,07,36,13.90
2014,08,09,07,37,13.90
2014,08,09,07,38,13.90
2014,08,09,07,39,14.00
2014,08,09,07,40,14.00
2014,08,09,07,41,14.10
2014,08,09,07,42,14.10
2014,08,09,07,43,14.10
2014,08,09,07,44,14.10
2014,08,09,07,45,14.20
2014,08,09,07,46,14.20
2014,08,09,07,47,14.30
2014,08,09,07,48,14.30
2014,08,09,07,49,14.30
2014,08,09,07,50,14.40
2014,08,09,07,51,14.40
2014,08,09,07,52,14.50
2014,08,09,07,53,14.60
2014,08,09,07,54,14.60
2014,08,09,07,55,14.60
2014,08,09,07,56,14.70
2014,08,09,07,57,14.70
2014,08,09,07,58,14.80
2014,08,09,07,59,14.80
2014,08,09,08,00,14.90
2014,08,09,08,01,14.90
2014,08,09,08,02,15.00
2014,08,09,08,03,15.00
2014,08,09,08,04,15.10
2014,08,09,08,05,15.10
2014,08,09,08,06,15.20
2014,08,09,08,07,15.20
2014,08,09,08,08,15.20
2014,08,09,08,09,15.30
2014,08,09,08,10,15.30
2014,08,09,08,11,15.30
2014,08,09,08,12,15.40
2014,08,09,08,13,15.40
2014,08,09,08,14,15.50
2014,08,09,08,15,15.50
2014,08,09,08,16,15.60
2014,08,09,08,17,15.60
2014,08,09,08,18,15.60
2014,08,09,08,19,15.70
2014,08,09,08,20,15.70
2014,08,09,08,21,15.80
2014,08,09,08,22,15.80
2014,08,09,08,23,15.90
2014,08,09,08,24,15.90
2014,08,09,08,25,16.00
2014,08,09,08,26,16.00
2014,08,09,08,27,16.10
2014,08,09,08,28,16.10
2014,08,09,08,29,16.20
2014,08,09,08,30,16.20
2014,08,09,08,31,16.30
2014,08,09,08,32,16.30
2014,08,09,08,33,16.40
2014,08,09,08,34,16.40
2014,08,09,08,35,16.50
2014,08,09,08,36,16.50
2014,08,09,08,37,16.60
2014,08,09,08,38,16.60
2014,08,09,08,39,16.70
2014,08,09,08,40,16.70
2014,08,09,08,41,16.70
2014,08,09,08,42,16.80
2014,08,09,08,43,16.80
2014,08,09,08,44,16.80
2014,08,09,08,45,16.90
2014,08,09,08,46,16.90
2014,08,09,08,47,17.00
2014,08,09,08,48,17.00
2014,08,09,08,49,17.10
2014,08,09,08,50,17.10
2014,08,09,08,51,17.10
2014,08,09,08,52,17.20
2014,08,09,08,53,17.20
2014,08,09,08,54,17.20
2014,08,09,08,55,17.30
2014,08,09,08,56,17.30
2014,08,09,08,57,17.30
2014,08,09,08,58,17.40
2014,08,09,08,59,17.40
2014,08,09,09,00,17.50
2014,08,09,09,01,17.50
2014,08,09,09,02,17.60
2014,08,09,09,03,17.60
2014,08,09,09,04,17.70
2014,08,09,09,05,17.80
2014,08,09,09,06,17.80
2014,08,09,09,07,17.90
2014,08,09,09,08,18.00
2014,08,09,09,09,18.10
2014,08,09,09,10,18.20
2014,08,09,09,11,18.30
2014,08,09,09,12,18.40
2014,08,09,09,13,18.40
2014,08,09,09,14,18.50
2014,08,09,09,15,18.60
2014,08,09,09,16,18.70
2014,08,09,09,17,18.70
2014,08,09,09,18,18.80
2014,08,09,09,19,18.90
2014,08,09,09,20,18.90
2014,08,09,09,21,19.00
2014,08,09,09,22,19.10
2014,08,09,09,23,19.20
2014,08,09,09,24,19.20
2014,08,09,09,25,19.30
2014,08,09,09,26,19.30
2014,08,09,09,27,19.40
2014,08,09,09,28,19.40
2014,08,09,09,29,19.40
2014,08,09,09,30,19.50
2014,08,09,09,31,19.50
2014,08,09,09,32,19.60
2014,08,09,09,33,19.60
2014,08,09,09,34,19.70
2014,08,09,09,35,19.70
2014,08,09,09,36,19.70
2014,08,09,09,37,19.80
2014,08,09,09,38,19.80
2014,08,09,09,39,19.80
2014,08,09,09,40,19.80
2014,08,09,09,41,19.90
2014,08,09,09,42,19.90
2014,08,09,09,43,19.90
2014,08,09,09,44,19.90
2014,08,09,09,45,19.90
2014,08,09,09,46,20.00
2014,08,09,09,47,20.00
2014,08,09,09,48,20.00
2014,08,09,09,49,20.00
2014,08,09,09,50,19.90
2014,08,09,09,51,19.90
2014,08,09,09,52,19.90
2014,08,09,09,53,19.90
2014,08,09,09,54,19.90
2014,08,09,09,55,19.90
2014,08,09,09,56,19.90
2014,08,09,09,57,19.90
2014,08,09,09,58,19.90
2014,08,09,09,59,19.90
2014,08,09,10,00,19.90
2014,08,09,10,01,19.90
2014,08,09,10,02,19.90
2014,08,09,10,03,20.00
2014,08,09,10,04,20.00
2014,08,09,10,05,20.00
2014,08,09,10,06,20.00
2014,08,09,10,07,20.00
2014,08,09,10,08,20.00
2014,08,09,10,09,20.10
2014,08,09,10,10,20.10
2014,08,09,10,11,20.10
2014,08,09,10,12,20.10
2014,08,09,10,13,20.10
2014,08,09,10,14,20.20
2014,08,09,10,15,20.20
2014,08,09,10,16,20.30
2014,08,09,10,17,20.30
2014,08,09,10,18,20.40
2014,08,09,10,19,20.40
2014,08,09,10,20,20.40
2014,08,09,10,21,20.50
2014,08,09,10,22,20.50
2014,08,09,10,23,20.60
2014,08,09,10,24,20.60
2014,08,09,10,25,20.70
2014,08,09,10,26,20.70
2014,08,09,10,27,20.70
2014,08,09,10,28,20.60
2014,08,09,10,29,20.60
2014,08,09,10,30,20.60
2014,08,09,10,31,20.60
2014,08,09,10,32,20.70
2014,08,09,10,33,20.70
2014,08,09,10,34,20.70
2014,08,09,10,35,20.80
2014,08,09,10,36,20.80
2014,08,09,10,37,20.70
2014,08,09,10,38,20.70
2014,08,09,10,39,20.80
2014,08,09,10,40,20.80
2014,08,09,10,41,20.80
2014,08,09,10,42,20.70
2014,08,09,10,43,20.70
2014,08,09,10,44,20.70
2014,08,09,10,45,20.70
2014,08,09,10,46,20.70
2014,08,09,10,47,20.80
2014,08,09,10,48,20.80
2014,08,09,10,49,20.80
2014,08,09,10,50,20.80
2014,08,09,10,51,20.80
2014,08,09,10,52,20.90
2014,08,09,10,53,20.90
2014,08,09,10,54,20.90
2014,08,09,10,55,20.90
2014,08,09,10,56,20.90
2014,08,09,10,57,20.90
2014,08,09,10,58,20.90
2014,08,09,10,59,20.90
2014,08,09,11,00,20.90
2014,08,09,11,01,21.00
2014,08,09,11,02,21.10
2014,08,09,11,03,21.10
2014,08,09,11,04,21.10
2014,08,09,11,05,21.10
2014,08,09,11,06,21.10
2014,08,09,11,07,21.10
2014,08,09,11,08,21.00
2014,08,09,11,09,21.00
2014,08,09,11,10,21.00
2014,08,09,11,11,21.00
2014,08,09,11,12,21.00
2014,08,09,11,13,21.00
2014,08,09,11,14,20.90
2014,08,09,11,15,20.90
2014,08,09,11,16,20.90
2014,08,09,11,17,20.90
2014,08,09,11,18,20.90
2014,08,09,11,19,20.90
2014,08,09,11,20,21.00
2014,08,09,11,21,21.10
2014,08,09,11,22,21.10
2014,08,09,11,23,21.10
2014,08,09,11,24,21.10
2014,08,09,11,25,21.00
2014,08,09,11,26,21.00
2014,08,09,11,27,21.00
2014,08,09,11,28,21.00
2014,08,09,11,29,20.90
2014,08,09,11,30,20.90
2014,08,09,11,31,20.90
2014,08,09,11,32,20.90
2014,08,09,11,33,20.90
2014,08,09,11,34,20.90
2014,08,09,11,35,20.90
2014,08,09,11,36,20.90
2014,08,09,11,37,20.90
2014,08,09,11,38,20.90
2014,08,09,11,39,20.90
2014,08,09,11,40,20.90
2014,08,09,11,41,21.00
2014,08,09,11,42,21.00
2014,08,09,11,43,21.00
2014,08,09,11,44,21.00
2014,08,09,11,45,21.00
2014,08,09,11,46,21.10
2014,08,09,11,47,21.10
2014,08,09,11,48,21.10
2014,08,09,11,49,21.10
2014,08,09,11,50,21.10
2014,08,09,11,51,21.00
2014,08,09,11,52,21.00
2014,08,09,11,53,21.00
2014,08,09,11,54,20.90
2014,08,09,11,55,20.80
2014,08,09,11,56,20.80
2014,08,09,11,57,20.80
2014,08,09,11,58,20.80
2014,08,09,11,59,20.80
2014,08,09,12,00,20.90
2014,08,09,12,01,20.90
2014,08,09,12,02,20.90
2014,08,09,12,03,20.90
2014,08,09,12,04,21.00
2014,08,09,12,05,21.00
2014,08,09,12,06,21.00
2014,08,09,12,07,21.00
2014,08,09,12,08,21.10
2014,08,09,12,09,21.10
2014,08,09,12,10,21.10
2014,08,09,12,11,21.10
2014,08,09,12,12,21.10
2014,08,09,12,13,21.10
2014,08,09,12,14,21.10
2014,08,09,12,15,21.10
2014,08,09,12,16,21.10
2014,08,09,12,17,21.10
2014,08,09,12,18,21.20
2014,08,09,12,19,21.20
2014,08,09,12,20,21.20
2014,08,09,12,21,21.30
2014,08,09,12,22,21.20
2014,08,09,12,23,21.20
2014,08,09,12,24,21.30
2014,08,09,12,25,21.30
2014,08,09,12,26,21.30
2014,08,09,12,27,21.40
2014,08,09,12,28,21.40
2014,08,09,12,29,21.40
2014,08,09,12,30,21.30
2014,08,09,12,31,21.30
2014,08,09,12,32,21.30
2014,08,09,12,33,21.40
2014,08,09,12,34,21.40
2014,08,09,12,35,21.40
2014,08,09,12,36,21.30
2014,08,09,12,37,21.30
2014,08,09,12,38,21.20
2014,08,09,12,39,21.30
2014,08,09,12,40,21.30
2014,08,09,12,41,21.30
2014,08,09,12,42,21.30
2014,08,09,12,43,21.40
2014,08,09,12,44,21.50
2014,08,09,12,45,21.60
2014,08,09,12,46,21.60
2014,08,09,12,47,21.60
2014,08,09,12,48,21.60
2014,08,09,12,49,21.50
2014,08,09,12,50,21.50
2014,08,09,12,51,21.50
2014,08,09,12,52,21.50
2014,08,09,12,53,21.50
2014,08,09,12,54,21.50
2014,08,09,12,55,21.50
2014,08,09,12,56,21.50
2014,08,09,12,57,21.50
2014,08,09,12,58,21.50
2014,08,09,12,59,21.50
2014,08,09,13,00,21.40
2014,08,09,13,01,21.40
2014,08,09,13,02,21.40
2014,08,09,13,03,21.40
2014,08,09,13,04,21.50
2014,08,09,13,05,21.50
2014,08,09,13,06,21.60
2014,08,09,13,07,21.60
2014,08,09,13,08,21.60
2014,08,09,13,09,21.60
2014,08,09,13,10,21.60
2014,08,09,13,11,21.60
2014,08,09,13,12,21.60
2014,08,09,13,13,21.50
2014,08,09,13,14,21.50
2014,08,09,13,15,21.40
2014,08,09,13,16,21.50
2014,08,09,13,17,21.50
2014,08,09,13,18,21.50
2014,08,09,13,19,21.60
2014,08,09,13,20,21.60
2014,08,09,13,21,21.60
2014,08,09,13,22,21.60
2014,08,09,13,23,21.60
2014,08,09,13,24,21.60
2014,08,09,13,25,21.70
2014,08,09,13,26,21.70
2014,08,09,13,27,21.60
2014,08,09,13,28,21.70
2014,08,09,13,29,21.70
2014,08,09,13,30,21.80
2014,08,09,13,31,21.80
2014,08,09,13,32,21.80
2014,08,09,13,33,21.90
2014,08,09,13,34,22.00
2014,08,09,13,35,22.10
2014,08,09,13,36,22.10
2014,08,09,13,37,22.10
2014,08,09,13,38,22.20
2014,08,09,13,39,22.20
2014,08,09,13,40,22.20
2014,08,09,13,41,22.30
2014,08,09,13,42,22.30
2014,08,09,13,43,22.30
2014,08,09,13,44,22.30
2014,08,09,13,45,22.20
2014,08,09,13,46,22.20
2014,08,09,13,47,22.30
2014,08,09,13,48,22.30
2014,08,09,13,49,22.30
2014,08,09,13,50,22.30
2014,08,09,13,51,22.40
2014,08,09,13,52,22.40
2014,08,09,13,53,22.40
2014,08,09,13,54,22.30
2014,08,09,13,55,22.20
2014,08,09,13,56,22.20
2014,08,09,13,57,22.20
2014,08,09,13,58,22.30
2014,08,09,13,59,22.30
2014,08,09,14,00,22.40
2014,08,09,14,01,22.40
2014,08,09,14,02,22.50
2014,08,09,14,03,22.50
2014,08,09,14,04,22.40
2014,08,09,14,05,22.30
2014,08,09,14,06,22.30
2014,08,09,14,07,22.20
2014,08,09,14,08,22.30
2014,08,09,14,09,22.30
2014,08,09,14,10,22.40
2014,08,09,14,11,22.40
2014,08,09,14,12,22.40
2014,08,09,14,13,22.40
2014,08,09,14,14,22.30
2014,08,09,14,15,22.20
2014,08,09,14,16,22.10
2014,08,09,14,17,22.00
2014,08,09,14,18,22.00
2014,08,09,14,19,21.90
2014,08,09,14,20,21.90
2014,08,09,14,21,22.00
2014,08,09,14,22,21.90
2014,08,09,14,23,21.90
2014,08,09,14,24,21.90
2014,08,09,14,25,21.90
2014,08,09,14,26,22.00
2014,08,09,14,27,22.00
2014,08,09,14,28,22.00
2014,08,09,14,29,21.90
2014,08,09,14,30,21.90
2014,08,09,14,31,21.80
2014,08,09,14,32,21.90
2014,08,09,14,33,21.90
2014,08,09,14,34,21.90
2014,08,09,14,35,21.90
2014,08,09,14,36,21.90
2014,08,09,14,37,21.90
2014,08,09,14,38,21.90
2014,08,09,14,39,21.90
2014,08,09,14,40,21.90
2014,08,09,14,41,21.90
2014,08,09,14,42,21.90
2014,08,09,14,43,21.90
2014,08,09,14,44,21.90
2014,08,09,14,45,21.90
2014,08,09,14,46,21.90
2014,08,09,14,47,21.90
2014,08,09,14,48,21.90
2014,08,09,14,49,21.90
2014,08,09,14,50,22.00
2014,08,09,14,51,22.00
2014,08,09,14,52,22.00
2014,08,09,14,53,22.10
2014,08,09,14,54,22.20
2014,08,09,14,55,22.20
2014,08,09,14,56,22.30
2014,08,09,14,57,22.30
2014,08,09,14,58,22.40
2014,08,09,14,59,22.50
2014,08,09,15,00,22.60
2014,08,09,15,01,22.70
2014,08,09,15,02,22.80
2014,08,09,15,03,22.90
2014,08,09,15,04,23.00
2014,08,09,15,05,23.10
2014,08,09,15,06,23.10
2014,08,09,15,07,23.10
2014,08,09,15,08,23.00
2014,08,09,15,09,23.00
2014,08,09,15,10,23.00
2014,08,09,15,11,23.00
2014,08,09,15,12,23.10
2014,08,09,15,13,23.10
2014,08,09,15,14,23.10
2014,08,09,15,15,23.10
2014,08,09,15,16,23.20
2014,08,09,15,17,23.20
2014,08,09,15,18,23.20
2014,08,09,15,19,23.20
2014,08,09,15,20,23.20
2014,08,09,15,21,23.30
2014,08,09,15,22,23.30
2014,08,09,15,23,23.20
2014,08,09,15,24,23.20
2014,08,09,15,25,23.10
2014,08,09,15,26,23.10
2014,08,09,15,27,23.10
2014,08,09,15,28,23.10
2014,08,09,15,29,23.10
2014,08,09,15,30,23.10
2014,08,09,15,31,23.10
2014,08,09,15,32,23.10
2014,08,09,15,33,23.10
2014,08,09,15,34,23.10
2014,08,09,15,35,23.10
2014,08,09,15,36,23.10
2014,08,09,15,37,23.10
2014,08,09,15,38,23.10
2014,08,09,15,39,23.10
2014,08,09,15,40,23.20
2014,08,09,15,41,23.20
2014,08,09,15,42,23.30
2014,08,09,15,43,23.30
2014,08,09,15,44,23.30
2014,08,09,15,45,23.30
2014,08,09,15,46,23.30
2014,08,09,15,47,23.30
2014,08,09,15,48,23.30
2014,08,09,15,49,23.40
2014,08,09,15,50,23.40
2014,08,09,15,51,23.40
2014,08,09,15,52,23.40
2014,08,09,15,53,23.40
2014,08,09,15,54,23.30
2014,08,09,15,55,23.30
2014,08,09,15,56,23.30
2014,08,09,15,57,23.30
2014,08,09,15,58,23.30
2014,08,09,15,59,23.30
2014,08,09,16,00,23.40
2014,08,09,16,01,23.40
2014,08,09,16,02,23.40
2014,08,09,16,03,23.40
2014,08,09,16,04,23.50
2014,08,09,16,05,23.50
2014,08,09,16,06,23.50
2014,08,09,16,07,23.60
2014,08,09,16,08,23.60
2014,08,09,16,09,23.70
2014,08,09,16,10,23.70
2014,08,09,16,11,23.70
2014,08,09,16,12,23.60
2014,08,09,16,13,23.60
2014,08,09,16,14,23.60
2014,08,09,16,15,23.60
2014,08,09,16,16,23.70
2014,08,09,16,17,23.70
2014,08,09,16,18,23.70
2014,08,09,16,19,23.70
2014,08,09,16,20,23.70
2014,08,09,16,21,23.70
2014,08,09,16,22,23.70
2014,08,09,16,23,23.70
2014,08,09,16,24,23.80
2014,08,09,16,25,23.80
2014,08,09,16,26,23.80
2014,08,09,16,27,23.80
2014,08,09,16,28,23.80
2014,08,09,16,29,23.90
2014,08,09,16,30,23.90
2014,08,09,16,31,23.90
2014,08,09,16,32,24.00
2014,08,09,16,33,24.00
2014,08,09,16,34,24.00
2014,08,09,16,35,24.00
2014,08,09,16,36,24.00
2014,08,09,16,37,24.10
2014,08,09,16,38,24.10
2014,08,09,16,39,24.10
2014,08,09,16,40,24.20
2014,08,09,16,41,24.20
2014,08,09,16,42,24.20
2014,08,09,16,43,24.20
2014,08,09,16,44,24.20
2014,08,09,16,45,24.10
2014,08,09,16,46,24.10
2014,08,09,16,47,24.10
2014,08,09,16,48,24.10
2014,08,09,16,49,24.10
2014,08,09,16,50,24.10
2014,08,09,16,51,24.10
2014,08,09,16,52,24.10
2014,08,09,16,53,24.20
2014,08,09,16,54,24.20
2014,08,09,16,55,24.20
2014,08,09,16,56,24.20
2014,08,09,16,57,24.20
2014,08,09,16,58,24.10
2014,08,09,16,59,24.10
2014,08,09,17,00,24.10
2014,08,09,17,01,24.20
2014,08,09,17,02,24.20
2014,08,09,17,03,24.20
2014,08,09,17,04,24.20
2014,08,09,17,05,24.20
2014,08,09,17,06,24.20
2014,08,09,17,07,24.20
2014,08,09,17,08,24.10
2014,08,09,17,09,24.20
2014,08,09,17,10,24.20
2014,08,09,17,11,24.20
2014,08,09,17,12,24.10
2014,08,09,17,13,24.10
2014,08,09,17,14,24.10
2014,08,09,17,15,24.10
2014,08,09,17,16,24.00
2014,08,09,17,17,23.90
2014,08,09,17,18,23.90
2014,08,09,17,19,23.80
2014,08,09,17,20,23.80
2014,08,09,17,21,23.80
2014,08,09,17,22,23.80